Temp
79 79 74 74 76 78 77 77 77 77 77 77 77 77 77 77 76 76 77 77 77 78 79 78 78 78 78 77 77 76 76 76 76 76 76 76 77 76 76 75 74 82 77
76 79 73 74 75 78 77 77 76 76 77 77 77 77 77 77 77 77 76 76 77 78 79 78 78 78 77 76 76 76 75 75 74 74 75 75 76 76 75 74 75 79 76
72 73 75 71 73 77 77 76 76 76 77 77 77 77 77 77 77 77 76 76 76 78 78 78 78 77 76 75 75 75 75 74 73 73 73 83 81 76 76 74 74 76 75
72 70 71 69 73 75 77 76 75 76 76 77 77 77 77 77 77 77 76 76 77 77 78 78 78 77 75 75 75 75 74 73 72 72 80 84 83 77 76 76 75 75 75
75 69 68 68 71 72 75 75 75 76 76 77 77 77 77 77 76 76 76 76 76 77 78 78 77 76 75 75 74 74 74 72 71 73 84 82 81 78 76 76 75 75 74
74 71 68 67 69 70 71 75 75 75 75 75 76 77 77 76 76 75 75 76 76 76 78 78 77 75 74 74 74 74 73 72 70 83 84 80 79 76 76 75 74 73 73
72 73 70 67 68 68 68 69 72 75 75 75 75 76 76 76 76 75 75 75 75 75 76 77 76 75 74 73 73 73 72 70 80 84 82 81 79 75 75 74 73 73 74
71 71 69 65 65 66 66 66 67 69 72 74 74 75 75 76 75 75 75 75 75 75 75 76 75 74 73 73 73 72 69 68 77 83 81 79 73 75 74 73 73 73 73
72 70 69 64 64 63 64 64 64 66 67 68 71 73 72 73 74 74 74 74 75 74 75 75 74 73 73 72 72 69 67 67 83 82 80 77 71 75 74 73 73 73 73
69 68 67 66 61 63 64 62 62 63 64 65 66 66 66 66 68 68 68 72 74 74 74 74 72 72 72 72 69 67 65 66 82 80 81 77 72 75 75 74 73 72 73
64 64 64 64 62 59 64 65 62 62 62 63 65 63 65 75 77 74 69 68 72 72 73 72 71 71 70 68 67 65 64 77 81 81 81 68 72 75 74 73 73 73 72
57 59 62 61 61 59 60 63 65 65 66 68 69 69 67 71 75 73 68 64 67 67 70 71 71 68 67 77 72 65 75 79 79 80 81 69 73 75 74 73 72 72 72
54 58 59 58 58 59 57 57 61 67 68 69 69 70 69 69 67 69 70 66 71 65 75 73 72 73 73 77 75 71 76 77 78 79 75 67 72 75 74 73 73 72 72
52 54 56 58 57 55 60 57 58 63 68 68 68 69 69 70 68 68 67 66 66 66 70 72 72 75 75 75 74 73 76 76 77 77 75 64 68 74 74 74 73 72 72
50 52 54 56 56 56 53 61 59 62 67 69 68 68 69 69 68 67 67 67 65 66 66 69 71 72 73 74 73 72 73 74 75 75 77 61 64 69 74 74 73 73 72
48 50 52 53 55 57 57 56 62 61 62 65 68 68 67 68 69 69 69 66 68 68 66 66 67 69 71 72 72 71 71 72 73 75 76 73 62 66 70 73 73 73 73
48 50 50 52 55 55 57 59 63 61 64 64 66 66 67 67 69 70 68 69 67 69 66 65 65 66 66 70 70 71 71 72 72 72 73 73 72 61 65 70 71 71 72
46 48 50 52 52 54 56 59 62 64 60 59 64 66 66 66 68 68 67 68 68 68 67 65 63 63 63 63 65 66 67 69 70 71 73 73 73 71 65 66 68 69 68
43 44 47 50 52 53 55 58 61 62 62 63 62 63 64 65 67 67 68 66 69 66 67 65 64 64 62 62 61 61 62 62 63 67 71 63 62 61 61 59 59 63 68
40 41 44 47 49 50 52 57 59 60 60 63 62 61 63 65 66 67 67 69 66 65 66 64 63 63 62 61 59 53 51 50 50 51 52 52 52 52 52 52 55 56 62
37 37 41 43 45 46 46 50 57 58 62 60 60 62 64 65 66 66 66 68 66 62 63 64 63 62 61 62 53 49 47 46 44 46 46 46 45 44 45 44 45 45 50
34 36 38 39 43 44 45 46 48 51 57 59 59 62 65 62 64 66 66 66 65 64 64 62 62 60 60 60 57 52 46 45 42 41 42 41 38 40 39 38 39 41 41
32 33 35 38 41 42 43 45 48 53 56 57 60 62 63 59 58 59 60 67 67 62 62 63 63 61 58 59 60 57 50 49 40 40 37 37 36 36 34 34 34 34 34
32 34 34 37 39 41 41 42 43 45 47 56 57 59 58 54 50 52 53 59 67 66 62 63 64 62 62 58 59 57 55 49 43 35 35 33 34 34 32 33 32 32 32
31 33 33 35 37 38 39 40 40 43 46 50 50 52 52 47 45 44 46 49 63 60 60 62 61 61 60 61 58 51 51 49 47 42 34 31 31 31 31 30 31 31 30
31 32 33 33 34 36 36 37 37 39 41 43 43 46 46 42 40 40 41 42 44 45 45 43 43 42 42 41 41 43 48 48 45 42 37 34 29 27 28 28 29 29 29
MSLP
1010.68 1010.61 1010.52 1010.29 1010.05 1009.81 1009.95 1010.14 1010.18 1010.34 1010.55 1010.83 1010.94 1011.21 1011.22 1011.36 1011.57 1011.89 1012.13 1012.35 1012.53 1012.61 1012.76 1013.00 1013.35 1013.71 1014.11 1014.40 1014.79 1015.11 1015.34 1015.47 1015.51 1015.61 1015.80 1015.92 1016.09 1016.24 1016.44 1016.62 1016.63 1016.24 1016.79
1011.84 1010.96 1010.58 1010.22 1010.04 1009.85 1009.94 1010.15 1010.25 1010.29 1010.42 1010.62 1010.77 1011.09 1011.39 1011.38 1011.59 1011.80 1012.10 1012.46 1012.57 1012.77 1012.84 1013.00 1013.32 1013.73 1014.14 1014.48 1014.79 1015.11 1015.47 1015.65 1015.75 1015.85 1015.94 1016.05 1016.13 1016.29 1016.49 1016.66 1016.48 1016.40 1016.72
1012.24 1011.72 1011.01 1010.60 1010.14 1009.70 1009.73 1009.86 1010.16 1010.27 1010.39 1010.52 1010.74 1010.77 1011.16 1011.40 1011.66 1011.77 1012.08 1012.40 1012.60 1012.69 1012.94 1013.22 1013.54 1013.75 1014.09 1014.38 1014.69 1015.03 1015.32 1015.72 1016.00 1016.18 1016.11 1015.63 1015.75 1016.21 1016.41 1016.54 1016.64 1016.72 1016.98
1012.54 1012.22 1011.71 1011.03 1010.26 1009.79 1009.60 1009.70 1009.98 1010.23 1010.31 1010.47 1010.58 1010.73 1010.95 1011.19 1011.61 1011.82 1012.03 1012.34 1012.57 1012.70 1012.96 1013.25 1013.55 1013.89 1014.17 1014.51 1014.77 1014.98 1015.31 1015.64 1016.06 1016.29 1016.00 1015.43 1015.56 1016.23 1016.33 1016.40 1016.70 1016.90 1017.15
1012.61 1012.62 1012.20 1011.53 1010.68 1010.10 1009.64 1009.69 1009.78 1010.05 1010.19 1010.29 1010.51 1010.69 1010.79 1011.09 1011.41 1011.78 1012.05 1012.25 1012.56 1012.75 1012.90 1013.22 1013.56 1013.99 1014.36 1014.48 1014.83 1015.12 1015.32 1015.61 1015.91 1016.09 1015.55 1015.63 1015.76 1016.25 1016.47 1016.60 1016.84 1017.09 1017.29
1012.94 1012.79 1012.63 1012.11 1011.38 1010.82 1010.36 1009.90 1009.96 1010.02 1010.20 1010.29 1010.49 1010.59 1010.81 1010.96 1011.18 1011.61 1012.01 1012.23 1012.52 1012.74 1012.86 1013.20 1013.64 1014.04 1014.42 1014.74 1014.93 1015.27 1015.36 1015.53 1015.95 1015.37 1015.32 1015.76 1016.04 1016.55 1016.77 1016.97 1017.17 1017.34 1017.49
1013.40 1013.14 1012.94 1012.63 1011.97 1011.78 1011.27 1010.75 1010.41 1010.18 1010.21 1010.26 1010.41 1010.44 1010.52 1010.80 1011.00 1011.38 1011.79 1012.14 1012.34 1012.60 1012.98 1013.14 1013.65 1014.10 1014.49 1014.83 1015.04 1015.36 1015.61 1015.58 1015.31 1015.02 1015.35 1015.77 1016.21 1016.80 1017.00 1017.43 1017.57 1017.65 1017.93
1013.74 1013.48 1013.31 1012.93 1012.46 1012.04 1011.57 1011.27 1011.06 1010.73 1010.48 1010.39 1010.50 1010.46 1010.50 1010.59 1010.87 1011.15 1011.45 1011.95 1012.28 1012.56 1012.97 1013.21 1013.48 1013.98 1014.47 1014.94 1015.10 1015.38 1015.72 1015.84 1015.23 1015.08 1015.51 1016.05 1016.68 1016.83 1017.25 1017.61 1017.77 1017.95 1018.10
1013.94 1013.74 1013.56 1013.46 1012.99 1012.40 1011.79 1011.43 1011.41 1011.25 1010.84 1010.83 1010.64 1010.66 1010.62 1010.58 1010.67 1010.87 1011.27 1011.64 1012.09 1012.46 1012.88 1013.18 1013.53 1014.04 1014.41 1014.89 1015.20 1015.51 1015.75 1015.84 1014.95 1015.15 1015.62 1016.35 1016.88 1016.99 1017.22 1017.60 1017.98 1018.10 1018.31
1014.31 1014.11 1013.90 1013.65 1013.41 1013.01 1012.32 1011.87 1011.67 1011.62 1011.21 1010.92 1010.98 1010.86 1010.81 1010.83 1010.76 1010.87 1011.00 1011.26 1011.74 1012.23 1012.69 1013.04 1013.48 1014.03 1014.49 1014.95 1015.45 1015.65 1015.96 1016.14 1015.07 1015.38 1015.56 1016.19 1016.88 1017.10 1017.36 1017.57 1017.88 1018.16 1018.32
1014.87 1014.81 1014.49 1014.02 1013.74 1013.41 1012.79 1012.08 1011.81 1011.76 1011.53 1011.12 1010.85 1010.76 1010.83 1010.66 1010.51 1010.69 1010.95 1011.14 1011.46 1011.87 1012.41 1012.91 1013.34 1013.89 1014.45 1015.06 1015.40 1015.94 1016.09 1015.77 1015.39 1015.51 1015.51 1016.56 1016.75 1016.97 1017.31 1017.63 1017.90 1018.15 1018.40
1015.41 1015.21 1014.88 1014.68 1014.08 1013.61 1013.06 1012.47 1012.33 1011.94 1011.62 1011.29 1010.82 1010.81 1010.72 1010.55 1010.45 1010.53 1010.65 1011.18 1011.42 1011.76 1012.46 1012.91 1013.42 1013.93 1014.45 1014.60 1015.28 1015.92 1015.76 1015.40 1015.60 1015.70 1015.62 1016.48 1016.75 1016.87 1017.14 1017.49 1017.85 1018.13 1018.39
1016.13 1015.59 1015.24 1014.98 1014.66 1013.99 1013.21 1012.56 1012.02 1011.71 1011.76 1011.36 1011.13 1010.91 1010.69 1010.41 1010.46 1010.57 1010.78 1011.21 1011.22 1011.83 1012.32 1012.94 1013.54 1013.77 1013.99 1013.99 1014.69 1015.42 1015.42 1015.51 1015.65 1015.73 1016.00 1016.70 1016.84 1016.82 1017.08 1017.34 1017.69 1018.02 1018.27
1016.53 1015.97 1015.59 1015.04 1014.61 1014.17 1013.48 1012.88 1012.23 1011.80 1011.54 1011.36 1011.26 1010.87 1010.82 1010.51 1010.40 1009.86 1010.58 1010.94 1011.21 1011.18 1012.05 1012.78 1013.23 1013.40 1013.78 1013.95 1014.44 1014.90 1015.03 1015.40 1015.58 1015.80 1015.91 1016.79 1016.88 1016.86 1017.00 1017.20 1017.49 1017.75 1018.05
1016.69 1016.12 1015.64 1015.21 1014.58 1014.13 1013.71 1012.65 1012.16 1011.81 1011.37 1011.21 1011.28 1011.17 1010.88 1010.80 1010.79 1010.51 1010.35 1010.64 1011.31 1011.49 1012.45 1012.72 1013.13 1013.38 1013.67 1013.89 1014.26 1014.64 1014.85 1015.15 1015.46 1015.84 1015.85 1016.74 1016.92 1016.93 1016.94 1017.07 1017.24 1017.57 1017.87
1017.20 1016.29 1015.69 1015.23 1014.62 1013.80 1013.38 1012.72 1012.04 1011.65 1011.45 1011.24 1010.74 1010.92 1011.00 1010.79 1010.71 1010.68 1010.45 1010.37 1010.67 1011.22 1012.00 1012.56 1012.95 1013.29 1013.45 1013.78 1014.20 1014.56 1014.81 1015.16 1015.20 1015.57 1015.94 1016.23 1016.72 1016.88 1016.94 1016.95 1017.09 1017.27 1017.56
1017.27 1016.57 1015.74 1014.99 1014.34 1013.69 1012.99 1012.34 1011.45 1011.35 1011.27 1011.05 1010.89 1010.58 1010.71 1010.79 1010.55 1010.42 1010.41 1010.05 1010.34 1010.63 1011.19 1011.76 1012.64 1012.82 1013.25 1013.58 1013.90 1014.38 1014.64 1014.86 1015.00 1015.30 1015.66 1015.80 1016.20 1016.94 1016.93 1016.93 1016.96 1017.17 1017.36
1017.58 1016.56 1015.77 1015.06 1014.30 1013.54 1012.49 1011.59 1010.95 1010.59 1010.79 1010.89 1010.16 1010.07 1010.13 1010.46 1010.65 1010.42 1010.21 1009.85 1009.85 1010.20 1010.73 1011.58 1012.00 1012.52 1013.09 1013.57 1014.05 1014.45 1014.70 1014.81 1014.91 1015.09 1015.40 1015.56 1015.94 1016.71 1017.01 1016.85 1016.89 1016.97 1017.39
1017.99 1016.98 1015.91 1015.10 1013.93 1013.43 1012.39 1011.55 1010.96 1010.60 1010.60 1009.52 1010.19 1011.09 1009.60 1009.81 1010.40 1010.49 1010.07 1009.64 1009.52 1010.04 1010.44 1011.06 1011.79 1012.02 1012.50 1013.40 1014.07 1014.70 1015.21 1015.51 1015.54 1015.45 1015.46 1016.69 1017.20 1017.69 1017.83 1017.55 1017.60 1017.51 1017.37
1018.21 1017.39 1016.31 1015.28 1014.39 1013.76 1012.82 1011.33 1010.63 1010.32 1009.93 1010.05 1010.19 1009.37 1008.89 1009.57 1010.30 1010.18 1009.87 1009.31 1009.54 1009.83 1010.15 1010.79 1011.25 1011.57 1012.05 1012.83 1013.90 1015.21 1015.97 1016.52 1016.66 1017.09 1017.80 1018.16 1018.58 1018.87 1018.94 1018.67 1018.35 1018.67 1018.19
1018.25 1017.58 1016.69 1015.31 1014.54 1014.19 1013.35 1012.15 1010.59 1009.93 1009.68 1009.58 1009.66 1009.63 1009.37 1009.86 1010.02 1009.87 1009.52 1009.13 1009.32 1009.63 1009.58 1010.25 1010.57 1010.87 1011.69 1012.71 1014.19 1015.79 1016.57 1017.13 1017.95 1018.85 1019.00 1019.52 1019.80 1020.07 1020.20 1020.35 1019.96 1020.12 1019.91
1018.36 1017.68 1016.91 1015.58 1014.75 1014.46 1013.88 1013.04 1012.24 1011.43 1010.47 1009.96 1009.78 1009.80 1009.59 1009.60 1009.75 1009.50 1009.05 1008.91 1009.06 1009.24 1009.16 1009.44 1009.86 1010.51 1011.06 1011.80 1012.81 1013.71 1016.50 1017.61 1018.36 1019.67 1020.67 1020.54 1021.15 1020.98 1021.36 1021.85 1021.54 1021.44 1021.58
1018.58 1017.96 1017.03 1015.88 1015.06 1014.79 1014.26 1013.46 1012.35 1011.32 1010.46 1010.07 1009.70 1009.44 1009.79 1009.81 1010.23 1009.63 1009.04 1008.70 1008.67 1008.75 1008.87 1009.24 1009.31 1009.86 1010.85 1011.28 1011.56 1012.27 1014.11 1016.27 1018.71 1020.20 1021.49 1021.28 1022.07 1022.10 1022.41 1023.04 1022.62 1023.32 1022.51
1018.73 1018.03 1017.26 1016.11 1015.23 1014.99 1014.50 1013.45 1012.39 1011.61 1011.05 1010.48 1010.18 1009.69 1010.09 1010.41 1010.56 1009.82 1009.51 1009.10 1008.23 1008.26 1008.73 1008.93 1009.26 1009.58 1010.20 1010.76 1011.50 1012.00 1012.20 1013.92 1016.59 1020.05 1021.74 1022.75 1022.16 1023.23 1023.06 1023.72 1023.83 1024.04 1022.86
1018.89 1018.04 1017.29 1016.23 1015.47 1015.23 1014.55 1013.86 1012.72 1011.94 1011.38 1010.64 1010.53 1010.40 1010.70 1010.64 1010.47 1010.61 1010.00 1009.24 1008.11 1008.33 1008.41 1008.56 1008.91 1009.17 1009.67 1010.66 1011.12 1012.33 1012.71 1013.76 1014.54 1017.27 1020.41 1022.09 1023.21 1024.20 1023.66 1024.74 1023.77 1025.20 1023.96
1018.93 1018.13 1017.24 1016.44 1015.84 1015.36 1014.75 1014.03 1013.23 1012.70 1011.98 1011.31 1011.10 1011.00 1010.99 1011.14 1011.29 1011.36 1010.88 1010.08 1009.65 1009.39 1009.24 1009.50 1009.89 1010.37 1010.61 1011.21 1011.93 1012.03 1012.62 1013.28 1014.10 1015.60 1018.63 1021.24 1022.45 1024.40 1024.60 1024.02 1024.95 1025.74 1024.62
Wind_Speed
11 17 12 16 13 10 12 12 13 13 14 14 16 16 17 17 16 15 15 14 13 15 17 17 17 16 15 15 14 13 12 12 11 12 11 12 12 12 12 11 8 10 10
15 15 14 11 14 11 14 13 13 12 14 17 16 17 17 17 17 17 16 15 16 17 18 18 17 16 15 14 12 13 12 9 9 10 10 10 11 12 11 10 10 10 8
14 15 16 17 16 10 13 14 12 13 13 17 18 18 18 17 18 18 17 16 16 17 18 17 16 16 14 14 14 15 14 11 9 8 9 10 11 12 10 11 10 16 17
12 13 15 18 16 14 10 13 13 13 14 16 19 19 18 19 18 18 17 16 16 18 17 17 17 16 15 15 15 16 15 13 10 9 9 8 10 14 13 18 18 18 17
13 12 14 20 19 19 9 11 14 14 14 15 17 19 19 19 18 18 17 17 16 18 17 16 19 16 14 15 15 15 14 12 11 11 9 8 10 15 17 17 17 16 14
13 13 13 17 18 18 17 9 11 12 13 14 15 17 18 18 18 18 17 17 16 17 17 17 17 16 14 13 14 13 14 14 12 13 11 9 9 14 15 14 14 14 13
13 12 12 16 16 16 16 15 11 10 12 13 14 14 18 19 19 19 18 18 17 17 17 17 17 15 14 13 13 13 13 12 14 11 10 10 10 16 16 13 13 13 13
11 11 12 14 16 14 15 17 16 11 7 11 13 14 15 18 18 19 19 19 17 16 16 16 18 17 14 12 14 13 11 10 10 11 11 9 14 16 16 13 13 13 13
11 11 10 11 14 13 11 10 14 16 13 11 8 13 14 16 19 20 20 20 18 16 16 14 16 15 14 13 13 12 12 11 12 8 10 8 12 16 16 14 12 12 13
12 11 12 12 10 11 9 9 7 10 12 11 9 9 8 9 10 13 15 19 19 17 15 13 14 14 13 12 12 12 10 8 12 11 9 8 11 13 13 14 14 11 12
12 14 14 13 11 9 10 7 8 6 9 8 5 5 6 9 12 13 12 13 19 16 15 13 14 14 12 9 11 11 11 9 9 8 7 16 13 14 14 13 12 12 11
17 17 13 14 14 11 8 8 6 5 4 5 4 3 4 7 9 9 11 11 11 11 11 13 13 11 11 10 8 11 9 10 8 8 6 14 14 16 15 14 13 13 12
17 14 14 14 14 14 8 5 3 3 3 2 4 5 3 3 4 4 3 4 9 11 8 10 10 8 11 9 10 9 12 10 8 7 7 11 13 15 16 15 15 14 14
17 16 17 14 14 13 9 5 5 3 3 2 4 4 4 3 3 5 5 4 4 3 7 8 6 10 13 12 12 14 13 10 7 6 8 10 9 13 15 16 16 16 16
16 17 16 17 14 12 12 9 5 6 4 2 2 4 3 3 4 4 3 7 6 5 6 7 8 8 11 12 12 10 12 12 10 7 6 11 10 10 14 16 17 15 14
16 17 17 17 16 13 11 12 9 4 5 4 2 2 5 4 4 4 5 6 9 8 9 6 8 8 9 9 12 10 10 9 12 11 8 9 10 10 9 15 15 16 15
16 17 17 17 17 14 14 12 9 6 5 3 3 4 3 5 7 7 6 8 8 9 13 12 8 8 8 8 12 12 11 12 9 10 9 8 9 5 1 6 12 16 16
17 17 17 14 16 16 13 10 8 7 4 4 2 2 3 5 9 8 6 7 8 10 10 10 8 7 7 5 5 6 7 9 11 11 10 7 6 4 4 3 7 8 11
16 17 16 16 14 14 14 9 8 8 6 4 3 6 3 5 8 10 8 5 9 8 10 10 9 8 9 8 6 3 2 2 2 3 5 7 8 7 6 15 15 6 9
15 16 15 11 13 14 11 9 6 5 5 5 5 4 2 5 9 10 9 8 7 7 9 9 12 11 9 8 6 7 6 7 8 9 9 8 9 9 8 10 9 11 18
14 15 15 12 13 10 8 7 3 4 4 3 3 6 6 7 10 11 8 9 8 7 10 13 10 10 8 9 7 5 7 10 12 8 7 7 9 9 10 10 7 7 9
15 15 15 12 12 10 8 7 5 5 6 5 3 5 6 4 8 9 9 9 9 9 13 9 10 5 5 11 6 6 3 4 8 9 7 7 9 8 10 10 11 11 10
14 15 14 12 11 11 12 8 6 6 6 6 5 4 2 4 8 8 9 11 11 8 8 9 10 11 7 10 12 5 7 5 6 5 8 7 8 7 7 7 10 9 11
14 14 13 12 10 10 12 9 8 5 5 3 4 4 2 5 7 9 9 13 12 10 10 9 10 11 9 10 7 1 5 6 6 5 3 4 9 6 7 6 6 7 10
12 12 12 11 10 10 11 9 7 6 5 4 3 4 4 6 8 9 9 11 11 5 6 10 11 12 8 10 8 3 4 4 7 6 6 4 4 4 7 5 7 3 9
11 11 10 11 10 10 10 10 9 7 6 4 5 4 4 6 6 10 9 8 7 5 5 6 7 7 6 6 3 3 3 3 6 6 6 5 7 3 3 5 6 2 6
Wind_Direction
340 328 328 313 279 206 184 182 171 171 173 174 173 176 172 170 167 166 167 169 168 156 149 141 138 143 148 148 148 143 144 146 147 142 142 141 141 143 146 148 160 148 151
323 331 330 308 281 221 187 183 177 175 181 177 177 179 181 174 172 169 168 169 164 163 151 145 150 154 159 153 147 148 150 144 136 139 140 145 144 148 156 162 213 127 167
346 340 342 346 322 250 192 178 177 181 186 183 184 180 182 179 177 175 173 173 172 166 157 155 159 160 156 151 150 152 149 139 138 139 166 165 159 157 172 176 180 130 121
357 349 352 348 355 325 194 174 176 187 192 191 189 187 184 181 183 180 178 175 177 170 163 168 165 163 157 158 159 151 150 146 147 153 191 174 157 156 143 136 132 124 116
2 360 359 359 10 7 257 183 179 193 194 199 198 196 189 185 185 184 181 178 182 173 168 170 164 159 160 161 157 154 154 155 157 184 174 173 157 158 141 129 124 118 114
353 0 3 6 13 18 7 318 209 206 205 205 204 203 196 189 185 188 184 181 184 180 169 167 165 164 164 164 158 161 162 159 168 191 174 146 161 151 137 120 116 114 116
345 354 358 5 18 18 23 16 347 240 218 215 214 205 198 193 188 186 188 186 186 181 179 168 166 165 168 174 167 168 165 161 193 174 170 166 143 137 121 126 121 122 126
338 344 360 355 359 11 15 16 6 9 331 234 233 221 199 196 193 192 188 188 187 184 184 175 168 168 172 181 173 168 156 183 200 164 163 146 138 135 133 135 137 139 139
343 343 351 350 348 346 360 23 3 354 6 358 306 247 231 207 197 194 194 185 186 185 186 179 168 171 172 183 185 156 160 188 182 168 163 140 156 147 146 143 142 146 141
338 343 342 343 340 339 333 341 354 343 343 352 349 328 277 253 234 216 203 191 186 184 183 175 167 170 171 188 176 158 161 201 183 165 167 142 164 155 157 156 153 157 155
335 340 334 337 336 326 326 343 338 316 316 316 322 335 293 248 237 230 215 207 188 183 178 172 167 172 170 173 162 156 161 192 183 182 175 144 169 168 167 166 165 164 174
330 328 330 331 327 325 315 326 313 330 321 329 337 313 307 254 251 246 224 205 192 179 171 167 167 162 170 195 181 158 195 195 194 192 187 168 177 172 172 175 174 177 182
321 317 322 323 322 318 312 305 309 318 299 314 338 338 303 270 219 229 231 209 195 179 184 178 178 184 195 198 184 183 202 201 202 197 168 182 189 179 178 178 185 189 189
320 317 319 318 315 315 308 284 269 285 294 311 327 351 331 310 329 216 177 193 195 148 187 195 202 196 196 196 190 190 202 199 205 202 171 196 222 196 185 184 190 194 195
317 318 316 316 310 307 305 289 262 253 242 243 299 313 325 311 294 321 170 174 168 164 208 200 204 197 204 199 192 199 200 204 205 204 202 190 223 236 204 196 197 197 196
316 314 316 311 306 300 293 283 265 235 246 240 184 300 297 284 283 255 225 192 182 178 178 194 202 189 199 199 200 195 202 200 205 198 206 192 212 234 249 221 210 204 197
311 312 311 311 308 298 294 275 254 234 237 245 244 185 259 277 274 263 271 203 200 187 181 187 193 192 199 199 199 200 202 211 211 206 213 215 196 103 260 262 234 226 207
313 314 311 312 308 297 289 287 268 243 236 218 245 294 205 267 271 269 250 235 199 197 183 188 180 178 192 196 196 199 200 208 206 213 213 218 227 161 76 148 150 169 149
318 318 314 317 317 312 301 283 262 248 241 278 254 244 250 253 263 259 250 231 209 196 191 190 204 194 182 192 180 173 217 286 270 302 235 77 79 82 76 58 56 66 136
328 319 317 318 324 326 313 293 261 251 236 233 242 267 271 247 250 249 252 239 214 198 196 196 202 191 178 165 137 101 74 63 41 44 54 54 61 58 46 48 59 48 74
336 328 322 330 336 333 326 319 313 288 272 223 239 256 244 247 253 244 239 245 207 204 196 199 187 186 181 157 115 67 66 67 61 39 47 51 57 49 42 40 47 51 52
333 331 324 336 336 331 320 317 290 315 299 291 280 255 251 302 274 256 238 235 220 213 210 202 192 172 190 173 169 126 172 75 64 51 24 68 54 58 56 43 45 54 51
334 331 329 330 338 328 330 312 299 268 245 256 235 221 260 334 295 291 289 250 224 210 201 193 193 176 183 185 176 152 148 180 128 52 51 57 62 60 66 48 59 45 58
334 330 330 337 341 333 327 321 322 293 282 293 296 309 328 11 335 331 304 276 238 212 208 204 193 188 190 186 185 220 58 131 151 136 64 52 59 50 54 51 62 53 63
334 336 332 346 351 339 337 336 333 321 317 352 9 326 4 22 8 349 336 323 244 231 209 204 196 203 195 192 187 163 113 91 102 138 140 125 89 49 62 60 63 18 77
343 344 345 355 355 348 347 350 353 349 349 10 11 351 4 23 13 6 0 10 28 66 85 82 92 75 88 89 74 70 154 148 146 138 113 137 114 58 76 47 63 37 68